Temperature
24 23 22 22 21 21 21 20 20 20 20 19 19 19 19 19 19 18 18 18 18 18 18 18 18 18 18 18 18 18 17 17 17 17 18 18 18 18 17 17 17 17 17
24 23 22 22 21 21 21 21 20 20 20 20 19 19 19 19 19 18 18 18 18 18 18 18 18 18 18 18 18 17 17 17 17 17 18 18 18 18 18 17 17 17 17
25 24 23 22 21 21 21 20 20 20 20 19 19 19 19 19 19 18 18 18 18 18 18 18 18 18 18 18 17 17 17 17 17 17 18 18 19 18 18 17 17 17 17
25 24 23 22 22 21 21 21 21 20 20 19 19 19 19 19 19 18 18 18 18 18 18 18 18 18 17 17 17 17 17 17 17 17 17 17 18 18 18 17 17 17 17
25 24 23 22 22 21 21 21 21 20 20 19 19 19 19 19 19 18 18 18 18 18 18 18 18 17 17 17 17 17 17 17 17 17 17 17 17 17 18 18 17 17 17
25 24 23 22 22 21 21 20 21 20 20 20 19 19 19 19 19 18 18 18 18 18 18 18 18 17 17 17 17 17 17 17 17 17 17 17 17 17 17 17 17 17 17
25 24 23 22 22 21 21 21 21 20 20 19 19 19 19 19 18 18 18 18 18 18 18 17 17 17 17 17 17 17 17 17 17 17 17 17 17 17 17 17 17 17 17
26 25 23 23 22 21 21 21 21 20 20 19 19 19 19 19 18 18 18 18 18 18 17 17 17 17 17 17 17 17 17 17 17 16 17 16 16 16 16 17 16 17 17
25 24 23 23 22 21 21 21 20 20 20 19 19 19 19 19 18 18 18 18 18 17 17 17 17 17 17 17 17 17 17 17 16 16 16 16 16 16 16 16 16 17 17
25 24 24 23 22 21 21 20 20 20 19 19 19 19 19 19 19 18 18 18 17 17 17 17 17 17 17 17 17 16 16 16 16 16 16 16 16 16 16 16 16 16 16
25 24 23 23 22 21 21 20 20 20 19 19 19 19 19 19 18 18 18 18 17 17 17 17 17 17 17 17 17 16 16 16 16 15 15 15 15 15 15 15 15 15 16
24 24 23 22 22 21 21 20 20 20 19 19 19 19 18 18 18 18 18 18 17 17 17 17 17 17 16 16 16 16 16 16 15 15 15 15 15 15 15 15 15 15 15
24 23 22 22 21 21 20 20 20 20 19 19 19 19 18 18 18 18 18 17 17 17 17 17 16 16 16 16 16 16 16 15 15 15 15 15 15 15 15 15 15 15 15
23 23 22 21 21 20 20 20 20 19 19 19 18 18 18 18 18 18 17 17 17 17 16 16 16 16 16 16 16 16 15 15 15 15 15 15 14 14 14 14 14 14 14
23 22 22 21 20 20 19 19 19 19 19 19 18 18 18 18 18 17 17 17 17 16 16 16 16 16 16 16 16 15 15 15 15 15 14 14 14 14 14 14 14 14 14
22 22 21 20 20 19 19 19 19 19 19 18 18 18 17 17 17 17 17 17 16 16 16 16 15 15 15 15 16 15 15 15 14 14 14 14 14 14 14 14 14 14 13
22 21 21 20 20 19 19 19 19 19 18 18 18 17 17 17 17 17 16 16 16 16 16 15 15 15 15 15 15 15 15 14 14 14 14 14 14 14 14 14 14 13 13
22 21 21 20 19 19 19 19 19 18 18 18 17 17 17 17 17 16 16 16 16 15 15 15 15 15 15 15 15 15 14 14 14 14 14 14 14 14 13 13 13 13 13
21 20 20 20 19 19 18 18 18 18 18 17 17 17 17 17 16 16 16 16 15 15 15 15 15 15 15 15 15 15 14 14 14 14 14 14 13 14 14 13 13 13 13
20 19 19 19 19 18 18 18 18 18 17 17 17 17 16 16 16 16 16 16 15 15 15 15 15 15 15 15 15 15 14 14 14 14 14 14 14 13 13 13 13 13 12
19 19 19 18 18 18 17 17 17 17 17 17 16 16 16 16 16 16 16 15 15 15 14 14 14 15 15 15 15 14 14 14 14 14 14 14 14 14 13 13 13 12 12
18 18 18 18 17 17 17 17 17 17 16 16 16 16 16 16 16 15 15 15 15 14 14 14 14 14 15 14 14 14 14 14 14 13 14 13 14 13 13 13 13 12 12
17 17 17 17 17 17 16 16 16 16 16 16 16 16 15 15 15 15 15 14 14 14 14 14 14 14 14 14 14 14 14 14 13 13 13 13 13 13 13 13 12 12 12
17 17 16 16 16 16 16 16 16 16 15 15 15 15 15 15 15 14 14 14 14 14 14 14 14 14 14 14 13 13 13 13 13 13 13 13 13 13 12 12 12 12 12
16 16 16 15 15 15 15 15 15 15 15 15 14 14 14 14 14 14 14 14 14 14 14 13 13 13 13 13 13 13 13 13 13 13 13 13 12 12 12 12 12 12 12
16 15 15 15 15 15 14 14 15 14 14 14 14 14 14 14 14 14 14 14 13 13 13 13 13 13 13 13 13 13 13 13 12 12 12 12 12 12 12 12 12 12 12
Wind_Speed
8 9 9 9 9 8 8 8 7 7 6 5 5 4 3 2 2 1 1 1 1 2 1 1 1 1 1 1 1 1 2 1 0 1 1 1 2 1 2 1 1 2 2
9 9 9 9 9 9 9 8 8 7 6 5 4 3 2 2 2 1 1 1 2 2 2 1 1 1 1 1 1 1 1 1 1 2 2 1 2 2 2 2 2 1 2
10 11 10 10 10 10 9 8 8 7 6 6 5 4 3 3 3 3 2 2 2 2 1 1 1 1 2 1 1 2 2 2 1 1 2 2 1 1 2 2 1 1 1
10 11 11 11 10 10 9 9 8 7 6 6 5 5 4 4 3 2 2 3 2 2 2 2 2 2 1 1 2 1 2 2 2 1 2 2 2 2 1 2 2 2 1
10 10 10 10 9 9 9 9 8 8 7 6 5 5 5 4 3 3 3 3 3 3 2 2 2 2 2 2 1 1 2 2 2 2 2 1 2 3 3 2 1 2 2
9 10 10 10 9 9 8 9 9 8 7 7 6 6 5 4 4 4 4 4 3 3 3 3 2 2 2 2 2 2 2 2 2 2 2 2 2 2 2 3 3 2 1
9 10 10 10 9 9 9 9 9 8 8 8 7 6 6 5 5 5 4 4 3 2 2 2 3 2 2 2 2 2 1 1 2 2 2 2 2 2 3 3 3 3 2
8 9 10 10 9 9 8 8 9 8 8 8 7 6 6 5 3 3 3 3 3 2 2 3 3 2 2 2 2 2 1 1 2 1 1 2 2 2 3 3 3 3 3
8 9 10 10 9 9 9 8 8 8 8 8 7 6 6 4 3 3 3 3 2 2 2 3 2 2 2 2 2 1 1 1 1 2 2 2 1 2 2 2 3 4 4
7 8 9 9 8 8 8 8 8 7 7 7 6 6 6 5 4 4 2 2 2 2 2 2 2 2 2 2 3 2 1 2 2 1 1 2 2 1 2 2 3 3 4
7 8 8 8 8 8 8 8 8 7 7 6 6 5 5 5 5 4 4 3 3 4 3 3 3 3 3 3 3 3 2 3 2 2 2 2 2 2 2 2 3 3 3
7 8 8 8 8 8 8 8 8 7 6 6 6 5 5 5 5 5 4 4 3 3 4 4 3 3 3 3 3 3 3 3 3 3 3 3 2 2 2 2 3 2 2
6 7 7 7 7 7 8 8 8 7 6 6 6 5 5 5 4 4 4 4 4 3 3 4 4 4 3 3 3 3 3 3 3 3 3 3 3 3 2 3 2 3 2
6 6 7 7 7 7 7 7 7 6 6 6 5 5 5 4 4 4 4 4 4 4 3 4 4 4 4 4 4 4 4 4 4 3 3 3 3 3 3 3 2 2 2
6 6 6 6 6 6 6 6 6 6 5 5 5 5 5 5 5 4 4 4 4 4 4 3 4 4 4 4 4 4 5 4 4 4 3 3 2 1 2 2 2 2 3
5 5 5 6 6 6 6 6 5 5 5 5 5 4 4 4 5 5 5 4 4 3 3 4 3 4 4 2 2 4 4 5 5 5 5 4 4 4 3 2 2 3 4
4 4 4 4 5 5 6 6 5 5 5 5 4 4 4 4 4 5 4 4 4 4 4 4 4 4 3 4 4 5 5 5 5 5 5 5 4 5 5 5 6 4 3
2 2 3 3 4 4 4 4 5 5 4 4 4 4 4 4 4 4 4 4 4 4 4 5 5 4 4 5 6 6 7 6 6 6 6 6 5 5 5 5 5 5 5
2 2 2 2 3 3 4 4 4 5 5 4 4 4 4 4 4 5 5 4 4 4 4 5 5 5 5 5 7 7 6 6 7 7 7 7 6 3 4 6 7 6 5
2 2 2 2 3 2 3 3 4 4 4 5 5 4 4 5 5 5 5 4 4 4 5 4 5 6 6 5 7 8 6 6 6 6 6 6 7 4 6 7 8 8 7
3 2 2 2 2 2 2 3 3 4 4 4 4 4 4 5 5 5 4 4 4 4 4 5 5 5 6 6 8 8 7 6 6 6 5 4 8 7 8 8 8 7 6
2 2 2 1 2 2 3 3 3 3 3 4 4 4 4 5 4 4 4 4 4 5 5 5 5 4 4 5 7 8 8 7 6 6 5 3 7 7 8 8 6 6 7
1 1 1 1 1 1 2 3 2 2 3 4 4 4 4 4 4 4 5 5 5 5 4 4 4 4 3 3 7 9 9 8 7 5 2 1 5 6 7 9 9 8 7
1 0 1 1 1 1 2 3 2 2 3 4 4 4 4 4 4 4 4 4 4 5 4 4 4 4 4 3 3 4 5 8 7 6 5 7 8 8 6 6 7 7 7
0 0 1 1 1 1 1 1 2 2 3 3 3 4 4 3 3 3 3 4 3 3 4 4 4 4 4 2 1 3 4 4 3 4 5 5 5 6 6 6 5 6 6
0 1 0 0 0 1 1 1 2 2 3 3 3 3 3 3 3 3 3 1 3 2 3 4 5 3 2 1 2 3 3 3 3 5 6 6 6 6 6 6 6 6 6
Wind_Direction
175 173 173 171 168 169 169 168 168 167 172 172 179 175 174 174 173 180 163 192 194 194 228 264 172 245 204 223 212 207 184 210 198 232 218 221 212 207 213 214 212 183 191
175 175 178 177 176 174 175 174 175 175 181 170 171 173 176 185 185 186 151 207 203 211 198 209 214 208 193 191 202 203 233 224 218 272 266 238 197 195 183 191 196 207 201
181 176 180 181 179 178 180 179 178 179 180 175 173 166 169 188 187 189 186 192 193 195 212 189 231 215 225 178 226 224 218 236 236 264 284 280 285 269 177 183 180 187 208
182 177 178 180 181 180 180 179 178 178 177 180 184 190 195 200 198 204 188 181 181 194 199 206 212 237 238 184 229 209 243 241 237 232 267 293 315 274 228 203 182 187 212
180 175 175 176 177 177 177 175 174 177 180 187 181 197 206 206 201 199 182 198 185 196 208 210 217 223 235 222 241 239 245 236 250 254 253 260 249 259 266 254 247 235 222
178 174 172 170 173 173 174 171 172 178 183 190 192 199 201 209 211 209 200 206 202 204 206 206 210 218 218 208 218 233 226 245 256 260 260 259 267 269 268 264 257 258 239
181 175 172 172 174 174 174 171 172 178 184 191 197 199 204 207 210 221 210 224 222 209 195 207 207 210 201 211 214 206 242 225 226 236 253 265 273 277 269 273 275 277 261
177 174 173 174 176 176 174 173 174 178 183 189 193 198 205 214 210 218 229 224 230 229 196 201 201 204 213 212 205 212 217 207 222 235 264 260 268 262 262 274 273 269 259
172 171 172 173 171 173 173 172 171 175 182 186 186 192 201 213 213 214 224 223 222 206 195 213 207 200 209 228 234 225 244 240 239 221 221 253 258 258 262 265 267 269 273
173 171 170 170 169 170 167 167 169 175 182 185 191 186 190 193 200 213 203 211 213 209 202 213 210 205 216 224 239 226 226 241 246 254 279 273 264 258 252 259 268 268 274
172 170 169 167 166 163 163 168 168 173 179 184 187 188 189 188 189 192 198 200 209 199 194 200 211 213 221 226 228 241 230 237 238 242 232 252 279 269 261 251 258 267 270
166 165 163 160 163 164 165 167 170 174 177 176 177 182 185 185 190 192 196 198 200 206 203 203 207 216 219 226 228 241 239 240 241 247 247 247 235 237 259 260 262 268 264
152 157 159 161 166 168 168 169 173 172 171 172 174 180 182 181 187 191 194 201 205 211 219 215 216 223 225 227 234 237 235 237 239 241 244 247 243 236 236 247 259 262 255
147 154 158 161 166 168 170 172 173 170 172 171 176 179 187 187 189 195 198 202 207 214 223 230 226 225 227 229 232 231 229 234 232 233 237 238 238 239 237 233 247 270 271
152 157 162 160 166 168 172 175 177 174 173 176 187 184 191 194 196 197 203 209 217 221 221 230 234 231 228 230 225 226 223 226 232 229 228 227 225 296 270 266 251 249 261
159 160 164 165 169 171 172 173 179 176 176 182 190 192 196 199 201 204 209 212 216 224 224 231 238 243 240 158 201 239 229 226 229 232 234 225 207 206 208 263 283 289 263
157 159 166 176 177 177 174 175 179 178 178 180 184 187 195 203 208 210 209 212 217 221 228 239 241 249 238 175 200 228 233 235 235 233 236 243 220 202 220 209 209 225 246
139 152 165 167 171 174 172 176 179 182 182 185 193 200 206 209 209 211 213 218 223 225 229 235 237 242 232 187 205 220 226 235 237 237 234 240 245 236 233 232 227 228 225
111 138 160 153 152 167 168 173 185 185 189 193 202 208 214 215 212 214 218 223 226 233 238 236 237 238 233 203 212 227 231 232 235 236 236 237 239 216 224 237 239 240 239
100 112 125 130 143 156 168 185 194 195 202 207 212 217 221 224 225 224 223 225 229 236 243 242 238 237 237 209 208 223 234 236 236 233 233 226 229 204 208 236 241 243 246
102 113 126 137 137 153 175 204 213 218 218 216 218 221 224 227 227 225 224 226 234 242 247 247 244 240 236 209 202 218 237 242 243 241 238 225 186 205 215 237 247 251 255
104 107 117 122 142 171 192 218 231 236 228 227 226 224 227 233 227 225 229 228 234 237 240 240 244 241 228 221 202 207 231 261 253 254 252 227 172 203 220 230 238 246 251
76 95 130 147 167 216 222 235 244 238 233 234 235 236 237 236 231 227 231 232 231 242 247 247 250 252 248 208 189 202 218 236 246 259 293 241 199 216 226 223 223 229 241
22 82 129 162 228 248 252 253 257 243 240 237 239 241 243 244 237 239 238 240 243 246 251 254 257 258 257 253 227 222 215 212 227 244 223 205 214 230 240 224 223 234 242
16 177 188 214 245 231 240 263 256 240 240 241 244 248 250 249 247 246 254 250 257 268 264 264 258 259 261 286 305 264 261 264 267 261 248 243 234 232 232 235 234 237 237
115 154 168 161 351 313 310 300 272 244 244 248 255 259 255 246 250 252 258 255 238 213 236 263 269 261 259 242 233 237 251 252 240 247 249 249 249 247 243 243 240 239 242
Height
1511 1513 1515 1517 1519 1520 1522 1523 1525 1526 1527 1529 1530 1531 1532 1533 1533 1534 1533 1533 1534 1534 1533 1534 1533 1532 1532 1532 1532 1533 1533 1533 1534 1534 1534 1535 1535 1535 1535 1535 1535 1535 1535
1509 1511 1514 1516 1517 1519 1520 1522 1523 1525 1527 1528 1529 1530 1531 1532 1533 1533 1533 1533 1533 1533 1533 1533 1533 1532 1532 1531 1532 1532 1533 1533 1534 1534 1534 1534 1535 1534 1534 1534 1534 1534 1534
1505 1509 1511 1513 1515 1517 1519 1521 1522 1524 1525 1527 1529 1529 1530 1531 1532 1532 1532 1532 1532 1532 1532 1532 1532 1532 1532 1532 1532 1532 1532 1533 1533 1533 1534 1534 1533 1534 1534 1533 1533 1533 1533
1503 1506 1509 1511 1513 1515 1517 1519 1521 1522 1524 1525 1527 1529 1529 1531 1531 1531 1531 1531 1531 1531 1531 1531 1531 1531 1531 1531 1531 1532 1532 1532 1532 1532 1532 1533 1533 1533 1533 1533 1533 1532 1532
1501 1504 1506 1509 1511 1513 1515 1517 1518 1520 1522 1524 1525 1527 1528 1529 1530 1530 1530 1530 1530 1530 1530 1530 1530 1530 1531 1530 1530 1530 1530 1531 1532 1532 1532 1532 1532 1532 1532 1531 1532 1532 1532
1498 1502 1504 1507 1509 1511 1513 1515 1516 1518 1520 1522 1524 1525 1526 1527 1528 1529 1529 1530 1530 1529 1529 1529 1529 1529 1529 1529 1529 1529 1529 1529 1530 1530 1531 1531 1531 1531 1531 1530 1530 1530 1530
1495 1499 1502 1504 1507 1509 1511 1513 1514 1516 1518 1520 1522 1523 1524 1525 1526 1527 1528 1528 1529 1529 1527 1528 1527 1528 1528 1528 1528 1528 1528 1528 1528 1528 1529 1529 1529 1529 1529 1529 1529 1529 1529
1493 1496 1499 1502 1504 1507 1509 1510 1512 1514 1516 1518 1519 1520 1522 1524 1525 1525 1526 1526 1527 1527 1526 1526 1526 1526 1526 1527 1527 1527 1527 1527 1527 1527 1527 1527 1527 1527 1527 1528 1527 1527 1527
1491 1494 1497 1500 1502 1505 1506 1508 1510 1512 1514 1516 1517 1518 1519 1521 1522 1523 1523 1524 1524 1525 1524 1525 1525 1525 1525 1525 1525 1526 1525 1525 1526 1526 1525 1525 1525 1525 1525 1526 1526 1526 1525
1490 1493 1496 1498 1501 1503 1505 1507 1509 1510 1512 1514 1515 1516 1516 1518 1519 1520 1521 1521 1522 1522 1522 1523 1523 1523 1524 1524 1524 1525 1524 1524 1524 1523 1523 1523 1524 1524 1524 1524 1524 1524 1524
1488 1492 1495 1497 1500 1502 1504 1505 1507 1509 1511 1512 1513 1514 1515 1515 1516 1517 1518 1519 1519 1520 1520 1520 1521 1521 1522 1522 1522 1522 1522 1522 1522 1522 1521 1521 1521 1522 1522 1522 1522 1522 1522
1488 1491 1493 1496 1499 1501 1502 1504 1505 1507 1509 1510 1511 1512 1513 1514 1515 1515 1516 1517 1517 1518 1518 1518 1518 1519 1519 1519 1519 1520 1520 1520 1520 1520 1520 1520 1520 1519 1520 1520 1520 1520 1519
1488 1490 1493 1495 1497 1500 1501 1503 1504 1506 1507 1508 1509 1510 1511 1512 1513 1513 1514 1515 1515 1515 1516 1516 1516 1516 1516 1517 1517 1517 1518 1518 1518 1518 1518 1518 1518 1517 1518 1517 1518 1518 1518
1488 1490 1492 1494 1496 1498 1500 1501 1503 1504 1506 1506 1507 1508 1509 1510 1511 1511 1512 1512 1513 1513 1513 1513 1513 1513 1514 1514 1514 1515 1515 1515 1515 1515 1515 1515 1516 1515 1515 1516 1515 1516 1516
1487 1489 1491 1493 1495 1496 1498 1499 1501 1502 1503 1504 1505 1506 1507 1508 1508 1509 1510 1510 1510 1511 1510 1510 1510 1511 1511 1511 1511 1511 1512 1512 1512 1513 1513 1513 1513 1513 1513 1514 1514 1514 1514
1487 1489 1490 1492 1493 1494 1496 1497 1499 1500 1501 1501 1503 1504 1505 1505 1506 1507 1507 1508 1508 1508 1508 1508 1508 1508 1509 1508 1508 1509 1509 1509 1510 1510 1510 1511 1510 1510 1510 1511 1511 1511 1512
1486 1487 1489 1490 1491 1492 1493 1495 1496 1498 1498 1499 1500 1501 1502 1503 1503 1504 1505 1505 1505 1505 1505 1505 1505 1505 1505 1505 1505 1506 1506 1507 1507 1507 1507 1508 1509 1508 1508 1508 1508 1508 1508
1485 1486 1488 1489 1490 1491 1492 1493 1494 1495 1496 1497 1498 1499 1500 1500 1501 1501 1501 1502 1502 1502 1502 1502 1502 1502 1502 1502 1502 1503 1503 1503 1503 1504 1504 1504 1505 1506 1505 1506 1506 1506 1506
1485 1486 1487 1488 1489 1490 1490 1490 1491 1492 1493 1494 1495 1496 1497 1497 1497 1498 1498 1498 1499 1499 1499 1499 1499 1499 1499 1499 1499 1499 1500 1500 1500 1500 1500 1501 1502 1502 1502 1502 1503 1503 1503
1484 1485 1486 1486 1487 1488 1489 1489 1489 1490 1490 1491 1492 1493 1493 1494 1494 1494 1495 1495 1496 1496 1495 1495 1495 1495 1495 1495 1495 1495 1497 1497 1497 1497 1497 1497 1498 1498 1498 1499 1499 1499 1499
1483 1484 1485 1485 1486 1486 1486 1487 1487 1488 1488 1489 1489 1489 1490 1490 1490 1491 1491 1491 1492 1492 1492 1492 1491 1492 1491 1491 1492 1492 1493 1493 1494 1494 1494 1494 1494 1494 1494 1495 1495 1495 1495
1482 1483 1483 1483 1483 1484 1484 1485 1485 1485 1485 1486 1486 1486 1486 1487 1487 1487 1487 1487 1488 1488 1488 1488 1488 1488 1488 1488 1488 1488 1489 1489 1490 1491 1491 1491 1490 1490 1491 1491 1491 1491 1491
1481 1481 1481 1481 1482 1482 1482 1483 1483 1483 1483 1483 1483 1483 1483 1483 1483 1483 1484 1484 1484 1485 1485 1485 1485 1485 1485 1485 1484 1484 1485 1485 1485 1486 1486 1486 1486 1486 1486 1486 1486 1486 1487
1480 1479 1479 1480 1480 1480 1480 1480 1480 1480 1480 1480 1480 1481 1481 1480 1480 1480 1481 1481 1481 1481 1481 1481 1481 1481 1481 1482 1481 1481 1481 1481 1482 1482 1482 1482 1482 1482 1482 1482 1482 1482 1482
1477 1477 1477 1478 1478 1477 1477 1477 1477 1477 1477 1477 1478 1478 1478 1477 1476 1477 1477 1477 1477 1477 1477 1477 1477 1478 1477 1477 1477 1477 1478 1478 1478 1478 1478 1478 1479 1478 1478 1478 1477 1477 1478
1475 1475 1476 1476 1476 1475 1475 1475 1475 1475 1475 1475 1475 1475 1475 1474 1474 1474 1473 1472 1473 1472 1472 1472 1473 1473 1473 1473 1473 1473 1473 1473 1474 1474 1474 1474 1474 1474 1474 1474 1473 1473 1473